User: anonymous   Login
Location: Mentone
(34.5413°N, 85.5351°W)
Time: 03:36:44
(UTC-06:00)
Language:

SL-8 R/B - Orbit

View from above orbital plane
View from above orbital plane
View from above satellite
View from above satellite

Ground track
Ground track

The orbit data is extracted from the following two-line orbital elements,

1 33066U 08031G   16343.23975312 -.00000089  00000-0  17920-4 0  9990
2 33066  48.4444 283.5198 0007615  24.9172 131.1164 14.69496796454672
Epoch (UTC): 08 December 2016 05:45:14
Eccentricity: 0.0007615
inclination: 48.4444°
perigee height: 657 km
apogee height: 668 km
right ascension of ascending node: 283.5198°
argument of perigee: 24.9172°
revolutions per day: 14.69496796
mean anomaly at epoch: 131.1164°
orbit number at epoch: 45467

The dashed part of the orbit path shows where the satellite is in the earth's shadow,  

DLR